Time,TemperatureF,DewpointF,PressureIn,WindDirection,WindDirectionDegrees,WindSpeedMPH,WindSpeedGustMPH,Humidity,HourlyPrecipIn,Conditions,Clouds,dailyrainin,SoftwareType,DateUTC
2013-02-06 00:00:00,26.2,23.6,30.00,WSW,244,4.0,8.0,90,0.00,,,0.01,WUHU216DAVISVP2,2013-02-06 05:00:00,
2013-02-06 00:05:00,26.3,23.5,30.01,WSW,241,2.0,8.0,89,0.00,,,0.00,WUHU216DAVISVP2,2013-02-06 05:05:00,
2013-02-06 00:10:00,26.4,23.6,30.01,WNW,288,4.0,8.0,89,0.00,,,0.00,WUHU216DAVISVP2,2013-02-06 05:10:00,
2013-02-06 00:15:00,26.6,23.8,30.01,NW,325,6.0,12.0,89,0.00,,,0.00,WUHU216DAVISVP2,2013-02-06 05:15:00,
2013-02-06 00:20:00,26.9,24.0,30.02,WNW,285,4.0,12.0,89,0.00,,,0.00,WUHU216DAVISVP2,2013-02-06 05:20:00,
2013-02-06 00:25:00,27.1,24.0,30.02,NW,306,8.0,14.0,88,0.00,,,0.00,WUHU216DAVISVP2,2013-02-06 05:25:00,
2013-02-06 00:30:00,27.2,24.1,30.03,WNW,302,8.0,14.0,88,0.00,,,0.00,WUHU216DAVISVP2,2013-02-06 05:30:00,
2013-02-06 00:35:00,27.4,24.3,30.03,WNW,292,8.0,22.0,88,0.00,,,0.00,WUHU216DAVISVP2,2013-02-06 05:35:00,
2013-02-06 00:41:00,27.5,24.4,30.03,WNW,301,6.0,22.0,88,0.00,,,0.00,WUHU216DAVISVP2,2013-02-06 05:41:00,
2013-02-06 00:46:00,27.6,24.5,30.03,NNW,343,2.0,18.0,88,0.00,,,0.00,WUHU216DAVISVP2,2013-02-06 05:46:00,
2013-02-06 00:51:00,27.6,24.5,30.04,WNW,291,8.0,12.0,88,0.00,,,0.00,WUHU216DAVISVP2,2013-02-06 05:51:00,
2013-02-06 00:56:00,27.6,24.5,30.04,West,262,2.0,12.0,88,0.00,,,0.00,WUHU216DAVISVP2,2013-02-06 05:56:00,
2013-02-06 01:01:00,27.7,24.6,30.04,NW,312,6.0,12.0,88,0.00,,,0.00,WUHU216DAVISVP2,2013-02-06 06:01:00,
2013-02-06 01:06:00,27.7,24.6,30.03,NW,310,4.0,12.0,88,0.00,,,0.00,WUHU216DAVISVP2,2013-02-06 06:06:00,
2013-02-06 01:11:00,27.7,24.6,30.04,WNW,300,6.0,12.0,88,0.00,,,0.00,WUHU216DAVISVP2,2013-02-06 06:11:00,
2013-02-06 01:16:00,27.7,24.6,30.04,WNW,299,6.0,16.0,88,0.00,,,0.00,WUHU216DAVISVP2,2013-02-06 06:16:00,
2013-02-06 01:21:00,27.6,24.7,30.04,West,270,8.0,16.0,89,0.00,,,0.00,WUHU216DAVISVP2,2013-02-06 06:21:00,
2013-02-06 01:26:00,27.6,24.7,30.04,WNW,284,10.0,14.0,89,0.00,,,0.00,WUHU216DAVISVP2,2013-02-06 06:26:00,
2013-02-06 01:31:00,27.6,24.7,30.04,NW,313,6.0,14.0,89,0.00,,,0.00,WUHU216DAVISVP2,2013-02-06 06:31:00,
2013-02-06 01:36:00,27.6,24.7,30.05,NW,319,6.0,14.0,89,0.00,,,0.00,WUHU216DAVISVP2,2013-02-06 06:36:00,
2013-02-06 01:41:00,27.6,25.0,30.04,WNW,296,12.0,18.0,90,0.00,,,0.00,WUHU216DAVISVP2,2013-02-06 06:41:00,
2013-02-06 01:46:00,27.7,25.1,30.04,West,275,8.0,18.0,90,0.00,,,0.00,WUHU216DAVISVP2,2013-02-06 06:46:00,
2013-02-06 01:51:00,27.7,25.1,30.05,North,360,10.0,16.0,90,0.00,,,0.00,WUHU216DAVISVP2,2013-02-06 06:51:00,
2013-02-06 01:56:00,27.7,25.1,30.05,WNW,299,2.0,14.0,90,0.00,,,0.00,WUHU216DAVISVP2,2013-02-06 06:56:00,
2013-02-06 02:01:00,27.7,25.1,30.05,WSW,253,6.0,14.0,90,0.00,,,0.00,WUHU216DAVISVP2,2013-02-06 07:01:00,
2013-02-06 02:06:00,27.7,25.1,30.05,West,271,6.0,14.0,90,0.00,,,0.00,WUHU216DAVISVP2,2013-02-06 07:06:00,
2013-02-06 02:11:00,27.8,25.2,30.05,West,268,6.0,16.0,90,0.00,,,0.00,WUHU216DAVISVP2,2013-02-06 07:11:00,
2013-02-06 02:16:00,27.8,25.5,30.05,West,277,6.0,16.0,91,0.00,,,0.00,WUHU216DAVISVP2,2013-02-06 07:16:00,
2013-02-06 02:22:00,27.8,25.5,30.06,WNW,288,2.0,14.0,91,0.00,,,0.00,WUHU216DAVISVP2,2013-02-06 07:22:00,
2013-02-06 02:27:00,27.8,25.5,30.06,WNW,288,6.0,10.0,91,0.00,,,0.00,WUHU216DAVISVP2,2013-02-06 07:27:00,
2013-02-06 02:32:00,27.8,25.5,30.06,NW,323,8.0,12.0,91,0.00,,,0.00,WUHU216DAVISVP2,2013-02-06 07:32:00,
2013-02-06 02:37:00,27.8,25.5,30.07,West,277,8.0,12.0,91,0.00,,,0.00,WUHU216DAVISVP2,2013-02-06 07:37:00,
2013-02-06 02:42:00,27.8,25.5,30.07,WNW,297,12.0,12.0,91,0.00,,,0.00,WUHU216DAVISVP2,2013-02-06 07:42:00,
2013-02-06 02:47:00,27.8,25.5,30.07,West,273,12.0,20.0,91,0.00,,,0.00,WUHU216DAVISVP2,2013-02-06 07:47:00,
2013-02-06 02:52:00,27.8,25.5,30.07,West,279,10.0,20.0,91,0.00,,,0.00,WUHU216DAVISVP2,2013-02-06 07:52:00,
2013-02-06 02:57:00,27.8,25.7,30.08,WNW,284,10.0,16.0,92,0.00,,,0.00,WUHU216DAVISVP2,2013-02-06 07:57:00,
2013-02-06 03:02:00,27.8,25.7,30.08,NW,304,8.0,20.0,92,0.00,,,0.00,WUHU216DAVISVP2,2013-02-06 08:02:00,
2013-02-06 03:07:00,27.8,25.5,30.09,NW,320,8.0,20.0,91,0.00,,,0.00,WUHU216DAVISVP2,2013-02-06 08:07:00,
2013-02-06 03:12:00,27.8,25.7,30.09,WSW,249,4.0,20.0,92,0.00,,,0.00,WUHU216DAVISVP2,2013-02-06 08:12:00,
2013-02-06 03:17:00,27.9,25.8,30.09,NW,307,10.0,22.0,92,0.00,,,0.00,WUHU216DAVISVP2,2013-02-06 08:17:00,
2013-02-06 03:22:00,27.9,25.8,30.09,West,281,8.0,22.0,92,0.00,,,0.00,WUHU216DAVISVP2,2013-02-06 08:22:00,
2013-02-06 03:27:00,27.9,25.8,30.09,West,270,10.0,14.0,92,0.00,,,0.00,WUHU216DAVISVP2,2013-02-06 08:27:00,
2013-02-06 03:32:00,27.9,25.8,30.10,NW,304,6.0,18.0,92,0.00,,,0.00,WUHU216DAVISVP2,2013-02-06 08:32:00,
2013-02-06 03:37:00,27.9,25.8,30.10,NW,318,4.0,20.0,92,0.00,,,0.00,WUHU216DAVISVP2,2013-02-06 08:37:00,
2013-02-06 03:42:00,27.9,25.8,30.10,NW,312,8.0,20.0,92,0.00,,,0.00,WUHU216DAVISVP2,2013-02-06 08:42:00,
2013-02-06 03:47:00,27.9,25.8,30.11,West,272,8.0,16.0,92,0.00,,,0.00,WUHU216DAVISVP2,2013-02-06 08:47:00,
2013-02-06 03:52:00,27.9,25.8,30.11,West,259,12.0,22.0,92,0.00,,,0.00,WUHU216DAVISVP2,2013-02-06 08:52:00,
2013-02-06 03:57:00,27.9,25.8,30.11,West,281,8.0,22.0,92,0.00,,,0.00,WUHU216DAVISVP2,2013-02-06 08:57:00,
2013-02-06 04:03:00,27.9,25.8,30.12,NNW,334,6.0,16.0,92,0.00,,,0.00,WUHU216DAVISVP2,2013-02-06 09:03:00,
2013-02-06 04:08:00,27.8,25.5,30.12,NW,307,12.0,22.0,91,0.00,,,0.00,WUHU216DAVISVP2,2013-02-06 09:08:00,
2013-02-06 04:13:00,27.8,25.7,30.12,NNW,338,12.0,22.0,92,0.00,,,0.00,WUHU216DAVISVP2,2013-02-06 09:13:00,
2013-02-06 04:18:00,27.8,25.7,30.12,NW,322,8.0,20.0,92,0.00,,,0.00,WUHU216DAVISVP2,2013-02-06 09:18:00,
2013-02-06 04:23:00,27.7,25.6,30.12,NW,312,12.0,18.0,92,0.00,,,0.00,WUHU216DAVISVP2,2013-02-06 09:23:00,
2013-02-06 04:28:00,27.5,25.2,30.13,NW,309,10.0,20.0,91,0.00,,,0.00,WUHU216DAVISVP2,2013-02-06 09:28:00,
2013-02-06 04:33:00,26.8,24.2,30.13,NW,311,4.0,20.0,90,0.00,,,0.00,WUHU216DAVISVP2,2013-02-06 09:33:00,
2013-02-06 04:38:00,26.4,23.8,30.14,NE,45,4.0,20.0,90,0.00,,,0.00,WUHU216DAVISVP2,2013-02-06 09:38:00,
2013-02-06 04:43:00,26.0,23.2,30.14,NW,313,6.0,26.0,89,0.00,,,0.00,WUHU216DAVISVP2,2013-02-06 09:43:00,
2013-02-06 04:48:00,25.8,23.0,30.14,NW,321,6.0,26.0,89,0.00,,,0.00,WUHU216DAVISVP2,2013-02-06 09:48:00,
2013-02-06 04:53:00,25.5,22.4,30.14,NW,318,8.0,20.0,88,0.00,,,0.00,WUHU216DAVISVP2,2013-02-06 09:53:00,
2013-02-06 04:58:00,25.3,22.2,30.14,WNW,294,20.0,20.0,88,0.00,,,0.00,WUHU216DAVISVP2,2013-02-06 09:58:00,
2013-02-06 05:03:00,25.1,22.0,30.14,NNE,12,4.0,20.0,88,0.00,,,0.00,WUHU216DAVISVP2,2013-02-06 10:03:00,
2013-02-06 05:08:00,25.0,21.6,30.15,NW,311,6.0,20.0,87,0.00,,,0.00,WUHU216DAVISVP2,2013-02-06 10:08:00,
2013-02-06 05:13:00,24.9,21.3,30.16,NNE,12,10.0,12.0,86,0.00,,,0.00,WUHU216DAVISVP2,2013-02-06 10:13:00,
2013-02-06 05:18:00,24.8,21.2,30.16,North,11,4.0,12.0,86,0.00,,,0.00,WUHU216DAVISVP2,2013-02-06 10:18:00,
2013-02-06 05:23:00,24.7,21.1,30.17,WNW,298,10.0,16.0,86,0.00,,,0.00,WUHU216DAVISVP2,2013-02-06 10:23:00,
2013-02-06 05:28:00,24.6,21.0,30.17,NNW,338,4.0,16.0,86,0.00,,,0.00,WUHU216DAVISVP2,2013-02-06 10:28:00,
2013-02-06 05:33:00,24.5,20.9,30.18,NNW,329,0.0,12.0,86,0.00,,,0.00,WUHU216DAVISVP2,2013-02-06 10:33:00,
2013-02-06 05:39:00,24.5,21.1,30.18,North,5,2.0,10.0,87,0.00,,,0.00,WUHU216DAVISVP2,2013-02-06 10:39:00,
2013-02-06 05:44:00,24.5,21.1,30.19,NW,308,6.0,10.0,87,0.00,,,0.00,WUHU216DAVISVP2,2013-02-06 10:44:00,
2013-02-06 05:49:00,24.3,20.7,30.19,NW,321,2.0,16.0,86,0.00,,,0.00,WUHU216DAVISVP2,2013-02-06 10:49:00,
2013-02-06 05:54:00,24.2,20.6,30.19,WNW,292,8.0,16.0,86,0.00,,,0.00,WUHU216DAVISVP2,2013-02-06 10:54:00,
2013-02-06 05:59:00,24.0,20.1,30.20,NW,305,12.0,16.0,85,0.00,,,0.00,WUHU216DAVISVP2,2013-02-06 10:59:00,
2013-02-06 06:04:00,24.0,20.1,30.20,NNW,336,8.0,16.0,85,0.00,,,0.00,WUHU216DAVISVP2,2013-02-06 11:04:00,
2013-02-06 06:09:00,23.9,19.7,30.20,NE,35,0.0,14.0,84,0.00,,,0.00,WUHU216DAVISVP2,2013-02-06 11:09:00,
2013-02-06 06:14:00,23.8,19.4,30.21,NNE,29,6.0,14.0,83,0.00,,,0.00,WUHU216DAVISVP2,2013-02-06 11:14:00,
2013-02-06 06:19:00,23.7,19.3,30.21,NW,311,6.0,16.0,83,0.00,,,0.00,WUHU216DAVISVP2,2013-02-06 11:19:00,
2013-02-06 06:24:00,23.6,19.2,30.22,North,5,2.0,16.0,83,0.00,,,0.00,WUHU216DAVISVP2,2013-02-06 11:24:00,
2013-02-06 06:29:00,23.5,18.8,30.22,ENE,63,8.0,14.0,82,0.00,,,0.00,WUHU216DAVISVP2,2013-02-06 11:29:00,
2013-02-06 06:34:00,23.4,18.4,30.23,NW,311,6.0,14.0,81,0.00,,,0.00,WUHU216DAVISVP2,2013-02-06 11:34:00,
2013-02-06 06:39:00,23.4,18.4,30.23,North,355,4.0,12.0,81,0.00,,,0.00,WUHU216DAVISVP2,2013-02-06 11:39:00,
2013-02-06 06:44:00,23.3,18.0,30.23,NW,307,4.0,12.0,80,0.00,,,0.00,WUHU216DAVISVP2,2013-02-06 11:44:00,
2013-02-06 06:49:00,23.2,17.7,30.23,WNW,298,8.0,16.0,79,0.00,,,0.00,WUHU216DAVISVP2,2013-02-06 11:49:00,
2013-02-06 06:54:00,23.2,17.7,30.23,NNE,25,4.0,16.0,79,0.00,,,0.00,WUHU216DAVISVP2,2013-02-06 11:54:00,
2013-02-06 06:59:00,23.1,17.6,30.24,NW,316,0.0,12.0,79,0.00,,,0.00,WUHU216DAVISVP2,2013-02-06 11:59:00,
2013-02-06 07:04:00,23.0,16.6,30.24,NW,317,4.0,14.0,76,0.00,,,0.00,WUHU216DAVISVP2,2013-02-06 12:04:00,
2013-02-06 07:09:00,22.9,15.9,30.24,NW,304,2.0,14.0,74,0.00,,,0.00,WUHU216DAVISVP2,2013-02-06 12:09:00,
2013-02-06 07:14:00,22.8,15.8,30.25,NNE,30,8.0,16.0,74,0.00,,,0.00,WUHU216DAVISVP2,2013-02-06 12:14:00,
2013-02-06 07:19:00,22.7,15.4,30.25,NW,309,4.0,16.0,73,0.00,,,0.00,WUHU216DAVISVP2,2013-02-06 12:19:00,
2013-02-06 07:24:00,22.6,15.6,30.25,WNW,294,4.0,12.0,74,0.00,,,0.00,WUHU216DAVISVP2,2013-02-06 12:24:00,
2013-02-06 07:30:00,22.5,15.2,30.25,WNW,302,2.0,8.0,73,0.00,,,0.00,WUHU216DAVISVP2,2013-02-06 12:30:00,
2013-02-06 07:35:00,22.4,15.1,30.26,WNW,292,8.0,12.0,73,0.00,,,0.00,WUHU216DAVISVP2,2013-02-06 12:35:00,
2013-02-06 07:40:00,22.3,14.7,30.27,NW,315,8.0,18.0,72,0.00,,,0.00,WUHU216DAVISVP2,2013-02-06 12:40:00,
2013-02-06 07:45:00,22.2,14.9,30.27,North,5,0.0,18.0,73,0.00,,,0.00,WUHU216DAVISVP2,2013-02-06 12:45:00,
2013-02-06 07:50:00,22.2,15.2,30.27,NNW,327,4.0,14.0,74,0.00,,,0.00,WUHU216DAVISVP2,2013-02-06 12:50:00,
2013-02-06 07:55:00,22.1,15.1,30.28,WNW,299,14.0,14.0,74,0.00,,,0.00,WUHU216DAVISVP2,2013-02-06 12:55:00,
2013-02-06 08:00:00,22.0,15.0,30.28,NNW,333,6.0,14.0,74,0.00,,,0.00,WUHU216DAVISVP2,2013-02-06 13:00:00,
2013-02-06 08:05:00,22.0,15.0,30.28,NNE,22,2.0,10.0,74,0.00,,,0.00,WUHU216DAVISVP2,2013-02-06 13:05:00,
2013-02-06 08:10:00,22.0,15.0,30.28,WNW,298,4.0,10.0,74,0.00,,,0.00,WUHU216DAVISVP2,2013-02-06 13:10:00,
2013-02-06 08:15:00,22.0,15.3,30.29,NW,311,0.0,8.0,75,0.00,,,0.00,WUHU216DAVISVP2,2013-02-06 13:15:00,
2013-02-06 08:20:00,22.1,15.1,30.29,North,355,6.0,8.0,74,0.00,,,0.00,WUHU216DAVISVP2,2013-02-06 13:20:00,
2013-02-06 08:25:00,22.1,15.1,30.30,NE,34,4.0,10.0,74,0.00,,,0.00,WUHU216DAVISVP2,2013-02-06 13:25:00,
2013-02-06 08:30:00,22.2,15.2,30.30,NW,321,2.0,10.0,74,0.00,,,0.00,WUHU216DAVISVP2,2013-02-06 13:30:00,
2013-02-06 08:35:00,22.2,15.2,30.30,NW,323,4.0,10.0,74,0.00,,,0.00,WUHU216DAVISVP2,2013-02-06 13:35:00,
2013-02-06 08:40:00,22.2,14.6,30.30,NW,313,10.0,14.0,72,0.00,,,0.00,WUHU216DAVISVP2,2013-02-06 13:40:00,
2013-02-06 08:45:00,22.2,14.9,30.31,NW,319,4.0,14.0,73,0.00,,,0.00,WUHU216DAVISVP2,2013-02-06 13:45:00,
2013-02-06 08:50:00,22.2,14.6,30.31,NW,317,2.0,14.0,72,0.00,,,0.00,WUHU216DAVISVP2,2013-02-06 13:50:00,
2013-02-06 08:55:00,22.3,14.7,30.31,NNE,19,6.0,10.0,72,0.00,,,0.00,WUHU216DAVISVP2,2013-02-06 13:55:00,
2013-02-06 09:00:00,22.4,14.8,30.31,NNE,24,2.0,10.0,72,0.00,,,0.00,WUHU216DAVISVP2,2013-02-06 14:00:00,
2013-02-06 09:05:00,22.4,14.8,30.32,NNE,25,0.0,8.0,72,0.00,,,0.00,WUHU216DAVISVP2,2013-02-06 14:05:00,
2013-02-06 09:10:00,22.6,15.3,30.32,North,5,4.0,8.0,73,0.00,,,0.00,WUHU216DAVISVP2,2013-02-06 14:10:00,
2013-02-06 09:15:00,22.7,14.8,30.32,NW,307,2.0,6.0,71,0.00,,,0.00,WUHU216DAVISVP2,2013-02-06 14:15:00,
2013-02-06 09:20:00,22.6,14.7,30.32,WNW,290,8.0,12.0,71,0.00,,,0.00,WUHU216DAVISVP2,2013-02-06 14:20:00,
2013-02-06 09:25:00,22.5,14.6,30.32,North,350,2.0,12.0,71,0.00,,,0.00,WUHU216DAVISVP2,2013-02-06 14:25:00,
2013-02-06 09:30:00,22.5,14.2,30.32,North,355,2.0,10.0,70,0.00,,,0.00,WUHU216DAVISVP2,2013-02-06 14:30:00,
2013-02-06 09:35:00,22.7,14.4,30.33,NE,49,2.0,10.0,70,0.00,,,0.00,WUHU216DAVISVP2,2013-02-06 14:35:00,
2013-02-06 09:40:00,23.0,15.0,30.32,ENE,57,6.0,10.0,71,0.00,,,0.00,WUHU216DAVISVP2,2013-02-06 14:40:00,
2013-02-06 09:45:00,23.3,14.7,30.32,NNE,20,4.0,14.0,69,0.00,,,0.00,WUHU216DAVISVP2,2013-02-06 14:45:00,
2013-02-06 09:50:00,23.5,14.9,30.33,NNW,343,4.0,14.0,69,0.00,,,0.00,WUHU216DAVISVP2,2013-02-06 14:50:00,
2013-02-06 09:56:00,23.6,15.0,30.33,NNE,24,4.0,14.0,69,0.00,,,0.00,WUHU216DAVISVP2,2013-02-06 14:56:00,
2013-02-06 10:01:00,23.8,14.5,30.33,ENE,69,4.0,12.0,67,0.00,,,0.00,WUHU216DAVISVP2,2013-02-06 15:01:00,
2013-02-06 10:06:00,23.8,14.8,30.33,NNE,31,6.0,12.0,68,0.00,,,0.00,WUHU216DAVISVP2,2013-02-06 15:06:00,
2013-02-06 10:11:00,23.9,14.6,30.33,NE,44,10.0,14.0,67,0.00,,,0.00,WUHU216DAVISVP2,2013-02-06 15:11:00,
2013-02-06 10:16:00,24.2,14.5,30.34,NE,53,8.0,14.0,66,0.00,,,0.00,WUHU216DAVISVP2,2013-02-06 15:16:00,
2013-02-06 10:21:00,24.3,14.6,30.34,North,351,6.0,10.0,66,0.00,,,0.00,WUHU216DAVISVP2,2013-02-06 15:21:00,
2013-02-06 10:26:00,24.3,14.3,30.34,NW,319,8.0,14.0,65,0.00,,,0.00,WUHU216DAVISVP2,2013-02-06 15:26:00,
2013-02-06 10:31:00,24.2,14.9,30.34,NE,44,4.0,14.0,67,0.00,,,0.00,WUHU216DAVISVP2,2013-02-06 15:31:00,
2013-02-06 10:36:00,24.5,15.5,30.33,WSW,247,4.0,10.0,68,0.00,,,0.00,WUHU216DAVISVP2,2013-02-06 15:36:00,
2013-02-06 10:41:00,24.7,15.4,30.33,NE,47,2.0,8.0,67,0.00,,,0.00,WUHU216DAVISVP2,2013-02-06 15:41:00,
2013-02-06 10:46:00,24.9,15.5,30.33,NE,37,0.0,8.0,67,0.00,,,0.00,WUHU216DAVISVP2,2013-02-06 15:46:00,
2013-02-06 10:51:00,25.2,15.5,30.34,NNE,17,0.0,8.0,66,0.00,,,0.00,WUHU216DAVISVP2,2013-02-06 15:51:00,
2013-02-06 10:56:00,25.1,15.0,30.34,NNE,33,4.0,14.0,65,0.00,,,0.00,WUHU216DAVISVP2,2013-02-06 15:56:00,
2013-02-06 11:01:00,25.3,15.6,30.34,NNE,24,4.0,14.0,66,0.00,,,0.00,WUHU216DAVISVP2,2013-02-06 16:01:00,
2013-02-06 11:06:00,25.5,15.8,30.34,WNW,288,10.0,10.0,66,0.00,,,0.00,WUHU216DAVISVP2,2013-02-06 16:06:00,
2013-02-06 11:11:00,25.3,15.2,30.35,NW,306,0.0,12.0,65,0.00,,,0.00,WUHU216DAVISVP2,2013-02-06 16:11:00,
2013-02-06 11:16:00,25.3,15.2,30.34,NW,306,4.0,12.0,65,0.00,,,0.00,WUHU216DAVISVP2,2013-02-06 16:16:00,
2013-02-06 11:21:00,25.5,15.8,30.34,NNE,32,6.0,12.0,66,0.00,,,0.00,WUHU216DAVISVP2,2013-02-06 16:21:00,
2013-02-06 11:26:00,26.1,16.0,30.34,NW,325,4.0,6.0,65,0.00,,,0.00,WUHU216DAVISVP2,2013-02-06 16:26:00,
2013-02-06 11:31:00,26.1,14.9,30.34,West,270,4.0,8.0,62,0.00,,,0.00,WUHU216DAVISVP2,2013-02-06 16:31:00,
2013-02-06 11:36:00,26.1,15.3,30.34,NNE,21,2.0,8.0,63,0.00,,,0.00,WUHU216DAVISVP2,2013-02-06 16:36:00,
2013-02-06 11:41:00,26.2,15.7,30.35,ENE,75,0.0,12.0,64,0.00,,,0.00,WUHU216DAVISVP2,2013-02-06 16:41:00,
2013-02-06 11:46:00,26.2,14.6,30.35,WNW,296,8.0,12.0,61,0.00,,,0.00,WUHU216DAVISVP2,2013-02-06 16:46:00,
2013-02-06 11:51:00,25.9,14.7,30.35,NW,311,4.0,10.0,62,0.01,,,0.01,WUHU216DAVISVP2,2013-02-06 16:51:00,
2013-02-06 11:56:00,26.0,15.2,30.35,WNW,299,6.0,12.0,63,0.01,,,0.01,WUHU216DAVISVP2,2013-02-06 16:56:00,
2013-02-06 12:02:00,26.0,15.5,30.35,NNW,348,4.0,12.0,64,0.01,,,0.01,WUHU216DAVISVP2,2013-02-06 17:02:00,
2013-02-06 12:07:00,26.1,16.0,30.35,NW,316,8.0,12.0,65,0.01,,,0.01,WUHU216DAVISVP2,2013-02-06 17:07:00,
2013-02-06 12:12:00,26.3,15.8,30.35,NW,305,6.0,12.0,64,0.01,,,0.01,WUHU216DAVISVP2,2013-02-06 17:12:00,
2013-02-06 12:17:00,26.5,15.3,30.35,WNW,303,6.0,12.0,62,0.01,,,0.01,WUHU216DAVISVP2,2013-02-06 17:17:00,
2013-02-06 12:22:00,26.3,14.7,30.35,East,80,0.0,12.0,61,0.01,,,0.01,WUHU216DAVISVP2,2013-02-06 17:22:00,
2013-02-06 12:27:00,26.7,15.5,30.34,NE,44,4.0,12.0,62,0.01,,,0.01,WUHU216DAVISVP2,2013-02-06 17:27:00,
2013-02-06 12:32:00,27.0,15.0,30.35,NE,55,2.0,8.0,60,0.01,,,0.01,WUHU216DAVISVP2,2013-02-06 17:32:00,
2013-02-06 12:37:00,27.1,15.9,30.35,WNW,300,8.0,10.0,62,0.01,,,0.01,WUHU216DAVISVP2,2013-02-06 17:37:00,
2013-02-06 12:42:00,26.6,15.7,30.35,WNW,300,8.0,12.0,63,0.01,,,0.01,WUHU216DAVISVP2,2013-02-06 17:42:00,
2013-02-06 12:47:00,26.6,16.5,30.35,North,355,4.0,12.0,65,0.01,,,0.01,WUHU216DAVISVP2,2013-02-06 17:47:00,
2013-02-06 12:52:00,27.0,15.8,30.34,NW,306,4.0,8.0,62,0.00,,,0.01,WUHU216DAVISVP2,2013-02-06 17:52:00,
2013-02-06 12:57:00,27.3,16.0,30.34,NW,311,0.0,8.0,62,0.00,,,0.01,WUHU216DAVISVP2,2013-02-06 17:57:00,
2013-02-06 13:02:00,27.4,15.8,30.34,NNW,331,2.0,8.0,61,0.00,,,0.01,WUHU216DAVISVP2,2013-02-06 18:02:00,
2013-02-06 13:07:00,27.7,16.4,30.34,North,5,4.0,8.0,62,0.00,,,0.01,WUHU216DAVISVP2,2013-02-06 18:07:00,
2013-02-06 13:12:00,27.8,15.8,30.34,North,5,4.0,8.0,60,0.00,,,0.01,WUHU216DAVISVP2,2013-02-06 18:12:00,
2013-02-06 13:17:00,27.7,16.4,30.35,NE,55,4.0,10.0,62,0.00,,,0.01,WUHU216DAVISVP2,2013-02-06 18:17:00,
2013-02-06 13:22:00,27.5,16.6,30.34,NE,53,2.0,14.0,63,0.00,,,0.01,WUHU216DAVISVP2,2013-02-06 18:22:00,
2013-02-06 13:27:00,27.6,15.9,30.34,East,87,0.0,14.0,61,0.00,,,0.01,WUHU216DAVISVP2,2013-02-06 18:27:00,
2013-02-06 13:32:00,27.8,16.1,30.35,WNW,291,4.0,8.0,61,0.00,,,0.01,WUHU216DAVISVP2,2013-02-06 18:32:00,
2013-02-06 13:38:00,27.6,15.6,30.35,NW,305,6.0,12.0,60,0.00,,,0.01,WUHU216DAVISVP2,2013-02-06 18:38:00,
2013-02-06 13:43:00,27.2,15.6,30.35,NNE,28,2.0,12.0,61,0.00,,,0.01,WUHU216DAVISVP2,2013-02-06 18:43:00,
2013-02-06 13:48:00,27.8,16.5,30.35,NNE,23,0.0,10.0,62,0.00,,,0.01,WUHU216DAVISVP2,2013-02-06 18:48:00,
2013-02-06 13:53:00,28.5,16.4,30.35,NW,314,2.0,8.0,60,0.00,,,0.01,WUHU216DAVISVP2,2013-02-06 18:53:00,
2013-02-06 13:58:00,28.6,16.5,30.35,West,265,4.0,10.0,60,0.00,,,0.01,WUHU216DAVISVP2,2013-02-06 18:58:00,
2013-02-06 14:03:00,28.4,16.3,30.35,NW,325,6.0,10.0,60,0.00,,,0.01,WUHU216DAVISVP2,2013-02-06 19:03:00,
2013-02-06 14:08:00,28.2,15.7,30.36,NE,36,0.0,10.0,59,0.00,,,0.01,WUHU216DAVISVP2,2013-02-06 19:08:00,
2013-02-06 14:13:00,28.4,15.9,30.36,NW,304,8.0,10.0,59,0.00,,,0.01,WUHU216DAVISVP2,2013-02-06 19:13:00,
2013-02-06 14:18:00,27.9,15.8,30.36,WNW,288,4.0,10.0,60,0.00,,,0.01,WUHU216DAVISVP2,2013-02-06 19:18:00,
2013-02-06 14:23:00,28.4,16.7,30.36,NE,47,10.0,10.0,61,0.00,,,0.01,WUHU216DAVISVP2,2013-02-06 19:23:00,
2013-02-06 14:28:00,28.7,16.2,30.36,WNW,292,4.0,10.0,59,0.00,,,0.01,WUHU216DAVISVP2,2013-02-06 19:28:00,
2013-02-06 14:33:00,29.1,17.0,30.37,North,5,0.0,10.0,60,0.00,,,0.01,WUHU216DAVISVP2,2013-02-06 19:33:00,
2013-02-06 14:38:00,29.1,15.8,30.36,NW,315,0.0,8.0,57,0.00,,,0.01,WUHU216DAVISVP2,2013-02-06 19:38:00,
2013-02-06 14:43:00,28.7,16.6,30.36,ENE,67,4.0,10.0,60,0.00,,,0.01,WUHU216DAVISVP2,2013-02-06 19:43:00,
2013-02-06 14:48:00,28.6,16.9,30.36,NW,317,6.0,10.0,61,0.00,,,0.01,WUHU216DAVISVP2,2013-02-06 19:48:00,
2013-02-06 14:53:00,28.7,17.0,30.36,NNW,348,4.0,6.0,61,0.00,,,0.01,WUHU216DAVISVP2,2013-02-06 19:53:00,
2013-02-06 14:58:00,29.0,17.3,30.36,NNE,24,4.0,6.0,61,0.01,,,0.02,WUHU216DAVISVP2,2013-02-06 19:58:00,
2013-02-06 15:03:00,28.9,16.4,30.36,NNW,335,6.0,10.0,59,0.01,,,0.02,WUHU216DAVISVP2,2013-02-06 20:03:00,
2013-02-06 15:08:00,28.5,16.4,30.36,WNW,302,8.0,10.0,60,0.01,,,0.02,WUHU216DAVISVP2,2013-02-06 20:08:00,
2013-02-06 15:13:00,28.2,15.7,30.36,West,272,0.0,8.0,59,0.01,,,0.02,WUHU216DAVISVP2,2013-02-06 20:13:00,
2013-02-06 15:18:00,28.8,16.3,30.36,WSW,256,2.0,8.0,59,0.01,,,0.02,WUHU216DAVISVP2,2013-02-06 20:18:00,
2013-02-06 15:23:00,29.5,17.0,30.36,WSW,256,2.0,4.0,59,0.01,,,0.02,WUHU216DAVISVP2,2013-02-06 20:23:00,
2013-02-06 15:28:00,30.2,16.8,30.36,SSE,153,2.0,4.0,57,0.01,,,0.02,WUHU216DAVISVP2,2013-02-06 20:28:00,
2013-02-06 15:34:00,30.2,16.8,30.36,ENE,71,6.0,8.0,57,0.02,,,0.03,WUHU216DAVISVP2,2013-02-06 20:34:00,
2013-02-06 15:39:00,29.3,16.4,30.36,ENE,64,0.0,14.0,58,0.02,,,0.03,WUHU216DAVISVP2,2013-02-06 20:39:00,
2013-02-06 15:44:00,29.5,16.6,30.37,North,355,0.0,14.0,58,0.02,,,0.03,WUHU216DAVISVP2,2013-02-06 20:44:00,
2013-02-06 15:49:00,29.5,15.7,30.37,WNW,291,0.0,6.0,56,0.02,,,0.03,WUHU216DAVISVP2,2013-02-06 20:49:00,
2013-02-06 15:54:00,29.2,15.5,30.36,NE,37,2.0,6.0,56,0.02,,,0.03,WUHU216DAVISVP2,2013-02-06 20:54:00,
2013-02-06 15:59:00,29.0,16.1,30.36,NE,36,4.0,6.0,58,0.01,,,0.03,WUHU216DAVISVP2,2013-02-06 20:59:00,
2013-02-06 16:04:00,28.8,15.9,30.36,NNE,32,2.0,6.0,58,0.01,,,0.03,WUHU216DAVISVP2,2013-02-06 21:04:00,
2013-02-06 16:09:00,28.6,15.3,30.37,WNW,301,4.0,8.0,57,0.01,,,0.03,WUHU216DAVISVP2,2013-02-06 21:09:00,
2013-02-06 16:14:00,28.3,15.0,30.37,WNW,283,0.0,8.0,57,0.01,,,0.03,WUHU216DAVISVP2,2013-02-06 21:14:00,
2013-02-06 16:19:00,28.3,15.4,30.37,WNW,294,2.0,6.0,58,0.01,,,0.03,WUHU216DAVISVP2,2013-02-06 21:19:00,
2013-02-06 16:24:00,28.2,16.5,30.37,WNW,294,0.0,6.0,61,0.01,,,0.03,WUHU216DAVISVP2,2013-02-06 21:24:00,
2013-02-06 16:29:00,28.2,16.1,30.37,ENE,64,2.0,6.0,60,0.01,,,0.03,WUHU216DAVISVP2,2013-02-06 21:29:00,
2013-02-06 16:38:00,28.0,15.9,30.37,West,277,2.0,4.0,60,0.00,,,0.03,WUHU216DAVISVP2,2013-02-06 21:38:00,
2013-02-06 16:43:00,28.0,15.9,30.37,NE,46,2.0,6.0,60,0.00,,,0.03,WUHU216DAVISVP2,2013-02-06 21:43:00,
2013-02-06 16:48:00,27.7,15.7,30.37,ENE,61,4.0,8.0,60,0.00,,,0.03,WUHU216DAVISVP2,2013-02-06 21:48:00,
2013-02-06 16:53:00,27.3,15.3,30.37,NE,36,4.0,8.0,60,0.00,,,0.03,WUHU216DAVISVP2,2013-02-06 21:53:00,
2013-02-06 16:58:00,27.1,15.5,30.37,NE,53,4.0,8.0,61,0.00,,,0.03,WUHU216DAVISVP2,2013-02-06 21:58:00,
2013-02-06 17:03:00,26.8,15.2,30.37,WNW,301,4.0,6.0,61,0.00,,,0.03,WUHU216DAVISVP2,2013-02-06 22:03:00,
2013-02-06 17:08:00,26.6,15.4,30.37,NNE,28,4.0,6.0,62,0.00,,,0.03,WUHU216DAVISVP2,2013-02-06 22:08:00,
2013-02-06 17:14:00,26.4,15.2,30.37,NW,318,4.0,6.0,62,0.00,,,0.03,WUHU216DAVISVP2,2013-02-06 22:14:00,
2013-02-06 17:19:00,26.2,14.2,30.37,WNW,298,0.0,8.0,60,0.00,,,0.03,WUHU216DAVISVP2,2013-02-06 22:19:00,
2013-02-06 17:24:00,26.1,14.5,30.37,North,5,2.0,8.0,61,0.00,,,0.03,WUHU216DAVISVP2,2013-02-06 22:24:00,
2013-02-06 17:29:00,25.9,14.3,30.37,North,5,0.0,4.0,61,0.00,,,0.03,WUHU216DAVISVP2,2013-02-06 22:29:00,
2013-02-06 17:34:00,25.7,14.1,30.36,North,5,0.0,4.0,61,0.00,,,0.03,WUHU216DAVISVP2,2013-02-06 22:34:00,
2013-02-06 17:39:00,25.5,14.0,30.36,North,5,0.0,0.0,61,0.00,,,0.03,WUHU216DAVISVP2,2013-02-06 22:39:00,
2013-02-06 17:44:00,25.3,14.1,30.35,North,5,0.0,2.0,62,0.00,,,0.03,WUHU216DAVISVP2,2013-02-06 22:44:00,
2013-02-06 17:49:00,25.2,14.0,30.36,North,5,0.0,2.0,62,0.00,,,0.03,WUHU216DAVISVP2,2013-02-06 22:49:00,
2013-02-06 17:54:00,25.0,13.9,30.36,North,5,0.0,0.0,62,0.00,,,0.03,WUHU216DAVISVP2,2013-02-06 22:54:00,
2013-02-06 17:59:00,24.8,13.7,30.36,North,5,0.0,0.0,62,0.00,,,0.03,WUHU216DAVISVP2,2013-02-06 22:59:00,
2013-02-06 18:04:00,24.6,13.8,30.36,North,5,0.0,0.0,63,0.00,,,0.03,WUHU216DAVISVP2,2013-02-06 23:04:00,
2013-02-06 18:09:00,24.4,14.0,30.36,North,5,0.0,0.0,64,0.00,,,0.03,WUHU216DAVISVP2,2013-02-06 23:09:00,
2013-02-06 18:14:00,24.1,13.7,30.36,North,5,0.0,0.0,64,0.00,,,0.03,WUHU216DAVISVP2,2013-02-06 23:14:00,
2013-02-06 18:19:00,23.9,13.5,30.36,North,5,0.0,0.0,64,0.00,,,0.03,WUHU216DAVISVP2,2013-02-06 23:19:00,
2013-02-06 18:24:00,23.6,13.6,30.37,North,5,0.0,0.0,65,0.00,,,0.03,WUHU216DAVISVP2,2013-02-06 23:24:00,
2013-02-06 18:29:00,23.3,13.7,30.37,North,5,0.0,0.0,66,0.00,,,0.03,WUHU216DAVISVP2,2013-02-06 23:29:00,
2013-02-06 18:34:00,23.2,13.6,30.37,North,5,0.0,0.0,66,0.00,,,0.03,WUHU216DAVISVP2,2013-02-06 23:34:00,
2013-02-06 18:39:00,23.0,13.7,30.38,North,5,0.0,0.0,67,0.00,,,0.03,WUHU216DAVISVP2,2013-02-06 23:39:00,
2013-02-06 18:45:00,22.9,13.6,30.38,North,5,0.0,0.0,67,0.00,,,0.03,WUHU216DAVISVP2,2013-02-06 23:45:00,
2013-02-06 18:50:00,22.8,13.5,30.39,North,5,0.0,0.0,67,0.00,,,0.03,WUHU216DAVISVP2,2013-02-06 23:50:00,
2013-02-06 18:55:00,22.6,13.3,30.39,North,5,0.0,2.0,67,0.00,,,0.03,WUHU216DAVISVP2,2013-02-06 23:55:00,
2013-02-06 19:00:00,22.4,13.5,30.39,North,5,0.0,2.0,68,0.00,,,0.03,WUHU216DAVISVP2,2013-02-07 00:00:00,
2013-02-06 19:05:00,22.2,13.3,30.39,North,5,0.0,0.0,68,0.00,,,0.03,WUHU216DAVISVP2,2013-02-07 00:05:00,
2013-02-06 19:10:00,22.1,13.5,30.39,North,5,0.0,0.0,69,0.00,,,0.03,WUHU216DAVISVP2,2013-02-07 00:10:00,
2013-02-06 19:15:00,21.9,13.3,30.39,North,5,0.0,0.0,69,0.00,,,0.03,WUHU216DAVISVP2,2013-02-07 00:15:00,
2013-02-06 19:20:00,21.8,13.6,30.39,North,5,0.0,0.0,70,0.00,,,0.03,WUHU216DAVISVP2,2013-02-07 00:20:00,
2013-02-06 19:25:00,21.8,13.6,30.39,North,5,0.0,0.0,70,0.00,,,0.03,WUHU216DAVISVP2,2013-02-07 00:25:00,
2013-02-06 19:30:00,21.8,13.6,30.40,North,5,0.0,0.0,70,0.00,,,0.03,WUHU216DAVISVP2,2013-02-07 00:30:00,
2013-02-06 19:35:00,21.7,13.5,30.40,North,5,0.0,0.0,70,0.00,,,0.03,WUHU216DAVISVP2,2013-02-07 00:35:00,
2013-02-06 19:40:00,21.6,13.7,30.40,North,5,0.0,0.0,71,0.00,,,0.03,WUHU216DAVISVP2,2013-02-07 00:40:00,
2013-02-06 19:45:00,21.4,13.5,30.40,North,5,0.0,0.0,71,0.00,,,0.03,WUHU216DAVISVP2,2013-02-07 00:45:00,
2013-02-06 19:50:00,21.1,13.5,30.40,North,5,0.0,0.0,72,0.00,,,0.03,WUHU216DAVISVP2,2013-02-07 00:50:00,
2013-02-06 19:55:00,20.9,13.6,30.40,North,5,0.0,0.0,73,0.00,,,0.03,WUHU216DAVISVP2,2013-02-07 00:55:00,
2013-02-06 20:00:00,20.8,13.5,30.40,North,5,0.0,0.0,73,0.00,,,0.03,WUHU216DAVISVP2,2013-02-07 01:00:00,
2013-02-06 20:05:00,20.8,13.5,30.40,North,5,0.0,2.0,73,0.00,,,0.03,WUHU216DAVISVP2,2013-02-07 01:05:00,
2013-02-06 20:10:00,20.7,13.5,30.40,North,5,0.0,2.0,73,0.00,,,0.03,WUHU216DAVISVP2,2013-02-07 01:10:00,
2013-02-06 20:15:00,20.5,13.6,30.40,North,5,0.0,0.0,74,0.00,,,0.03,WUHU216DAVISVP2,2013-02-07 01:15:00,
2013-02-06 20:20:00,20.4,13.5,30.40,North,5,0.0,0.0,74,0.00,,,0.03,WUHU216DAVISVP2,2013-02-07 01:20:00,
2013-02-06 20:25:00,20.4,13.8,30.40,North,5,0.0,0.0,75,0.00,,,0.03,WUHU216DAVISVP2,2013-02-07 01:25:00,
2013-02-06 20:30:00,20.3,13.7,30.40,North,5,0.0,0.0,75,0.00,,,0.03,WUHU216DAVISVP2,2013-02-07 01:30:00,
2013-02-06 20:35:00,20.2,13.9,30.40,North,5,0.0,0.0,76,0.00,,,0.03,WUHU216DAVISVP2,2013-02-07 01:35:00,
2013-02-06 20:40:00,20.1,13.8,30.40,North,5,0.0,0.0,76,0.00,,,0.03,WUHU216DAVISVP2,2013-02-07 01:40:00,
2013-02-06 20:46:00,19.9,13.6,30.40,North,5,0.0,0.0,76,0.00,,,0.03,WUHU216DAVISVP2,2013-02-07 01:46:00,
2013-02-06 20:51:00,19.8,13.8,30.40,North,5,0.0,0.0,77,0.00,,,0.03,WUHU216DAVISVP2,2013-02-07 01:51:00,
2013-02-06 20:56:00,19.8,13.8,30.40,North,5,0.0,0.0,77,0.00,,,0.03,WUHU216DAVISVP2,2013-02-07 01:56:00,
2013-02-06 21:01:00,19.6,13.6,30.40,North,5,0.0,0.0,77,0.00,,,0.03,WUHU216DAVISVP2,2013-02-07 02:01:00,
2013-02-06 21:06:00,19.5,13.8,30.40,North,5,0.0,0.0,78,0.00,,,0.03,WUHU216DAVISVP2,2013-02-07 02:06:00,
2013-02-06 21:11:00,19.3,13.6,30.40,North,5,0.0,0.0,78,0.00,,,0.03,WUHU216DAVISVP2,2013-02-07 02:11:00,
2013-02-06 21:16:00,19.1,13.4,30.40,North,5,0.0,0.0,78,0.00,,,0.03,WUHU216DAVISVP2,2013-02-07 02:16:00,
2013-02-06 21:21:00,19.0,13.3,30.40,North,5,0.0,2.0,78,0.00,,,0.03,WUHU216DAVISVP2,2013-02-07 02:21:00,
2013-02-06 21:26:00,18.8,13.4,30.40,North,5,0.0,2.0,79,0.00,,,0.03,WUHU216DAVISVP2,2013-02-07 02:26:00,
2013-02-06 21:31:00,18.7,13.3,30.40,North,5,0.0,0.0,79,0.00,,,0.03,WUHU216DAVISVP2,2013-02-07 02:31:00,
2013-02-06 21:36:00,18.6,13.2,30.40,North,5,0.0,0.0,79,0.00,,,0.03,WUHU216DAVISVP2,2013-02-07 02:36:00,
2013-02-06 21:41:00,18.5,13.1,30.40,North,5,0.0,0.0,79,0.00,,,0.03,WUHU216DAVISVP2,2013-02-07 02:41:00,
2013-02-06 21:46:00,18.5,13.1,30.40,North,5,0.0,2.0,79,0.00,,,0.03,WUHU216DAVISVP2,2013-02-07 02:46:00,
2013-02-06 21:51:00,18.7,13.6,30.39,North,5,0.0,2.0,80,0.00,,,0.03,WUHU216DAVISVP2,2013-02-07 02:51:00,
2013-02-06 21:56:00,18.8,13.4,30.39,North,5,0.0,2.0,79,0.00,,,0.03,WUHU216DAVISVP2,2013-02-07 02:56:00,
2013-02-06 22:01:00,19.0,13.6,30.39,ENE,74,0.0,4.0,79,0.00,,,0.03,WUHU216DAVISVP2,2013-02-07 03:01:00,
2013-02-06 22:06:00,19.4,13.7,30.38,ESE,113,2.0,4.0,78,0.00,,,0.03,WUHU216DAVISVP2,2013-02-07 03:06:00,
2013-02-06 22:12:00,19.9,13.6,30.39,ESE,114,0.0,4.0,76,0.00,,,0.03,WUHU216DAVISVP2,2013-02-07 03:12:00,
2013-02-06 22:17:00,20.4,13.8,30.39,ESE,115,0.0,4.0,75,0.00,,,0.03,WUHU216DAVISVP2,2013-02-07 03:17:00,
2013-02-06 22:22:00,20.9,14.0,30.38,ESE,121,2.0,6.0,74,0.00,,,0.03,WUHU216DAVISVP2,2013-02-07 03:22:00,
2013-02-06 22:27:00,21.2,14.2,30.38,SE,142,4.0,6.0,74,0.00,,,0.03,WUHU216DAVISVP2,2013-02-07 03:27:00,
2013-02-06 22:32:00,21.6,14.0,30.37,SE,139,4.0,6.0,72,0.00,,,0.03,WUHU216DAVISVP2,2013-02-07 03:32:00,
2013-02-06 22:37:00,21.9,14.0,30.37,SE,126,2.0,6.0,71,0.00,,,0.03,WUHU216DAVISVP2,2013-02-07 03:37:00,
2013-02-06 22:42:00,22.0,14.1,30.37,SE,131,2.0,6.0,71,0.00,,,0.03,WUHU216DAVISVP2,2013-02-07 03:42:00,
2013-02-06 22:47:00,21.8,13.9,30.37,SE,131,2.0,4.0,71,0.00,,,0.03,WUHU216DAVISVP2,2013-02-07 03:47:00,
2013-02-06 22:52:00,21.7,14.1,30.36,SSE,148,4.0,6.0,72,0.00,,,0.03,WUHU216DAVISVP2,2013-02-07 03:52:00,
2013-02-06 22:57:00,21.8,13.9,30.36,SSE,154,0.0,6.0,71,0.00,,,0.03,WUHU216DAVISVP2,2013-02-07 03:57:00,
2013-02-06 23:02:00,21.9,14.0,30.36,SE,144,0.0,6.0,71,0.00,,,0.03,WUHU216DAVISVP2,2013-02-07 04:02:00,
2013-02-06 23:07:00,22.0,13.8,30.36,SSE,163,4.0,6.0,70,0.00,,,0.03,WUHU216DAVISVP2,2013-02-07 04:07:00,
2013-02-06 23:12:00,22.0,13.8,30.36,SSE,167,4.0,10.0,70,0.00,,,0.03,WUHU216DAVISVP2,2013-02-07 04:12:00,
2013-02-06 23:17:00,22.1,13.9,30.36,SSE,167,0.0,12.0,70,0.00,,,0.03,WUHU216DAVISVP2,2013-02-07 04:17:00,
2013-02-06 23:22:00,22.2,13.6,30.36,South,174,4.0,12.0,69,0.00,,,0.03,WUHU216DAVISVP2,2013-02-07 04:22:00,
2013-02-06 23:27:00,22.2,13.6,30.36,SE,141,4.0,12.0,69,0.00,,,0.03,WUHU216DAVISVP2,2013-02-07 04:27:00,
2013-02-06 23:32:00,22.2,13.6,30.35,SE,140,4.0,12.0,69,0.00,,,0.03,WUHU216DAVISVP2,2013-02-07 04:32:00,
2013-02-06 23:37:00,22.1,13.5,30.35,SE,139,2.0,14.0,69,0.00,,,0.03,WUHU216DAVISVP2,2013-02-07 04:37:00,
2013-02-06 23:42:00,22.0,13.4,30.34,SE,126,2.0,14.0,69,0.00,,,0.03,WUHU216DAVISVP2,2013-02-07 04:42:00,
2013-02-06 23:47:00,21.9,13.7,30.34,SSE,155,2.0,14.0,70,0.00,,,0.03,WUHU216DAVISVP2,2013-02-07 04:47:00,
2013-02-06 23:52:00,22.0,13.4,30.34,SE,128,4.0,14.0,69,0.00,,,0.03,WUHU216DAVISVP2,2013-02-07 04:52:00,
2013-02-06 23:57:00,22.1,13.5,30.33,SE,132,4.0,12.0,69,0.00,,,0.03,WUHU216DAVISVP2,2013-02-07 04:57:00,